Location: Unspecified
(0.0000°N, 0.0000°E)
Time: 04:18:14
(UTC+02:00)

ASC 2 Rocket - Visible Passes

Search period start: 27 May 2017 00:00
Search period end: 06 June 2017 00:00
Orbit: 556 x 2345 km, 24.0° (Epoch: 26 May)

Date Brightness Start Highest point End Pass type
(mag) Time Alt. Az. Time Alt. Az. Time Alt. Az.
27 May 6.9 00:10:56 10° WNW 00:22:49 31° NNW 00:25:35 30° N visible
27 May 7.3 02:36:54 14° NNE 02:36:54 14° NNE 02:38:39 10° NE visible
27 May 6.7 04:31:43 15° NNW 04:37:21 22° N 04:43:44 10° NE visible
27 May 5.6 06:34:20 10° NW 06:42:25 36° NNE 06:48:00 10° E visible
27 May 5.9 20:56:49 10° WSW 21:07:35 69° NNW 21:21:49 10° ENE visible
27 May 6.7 23:02:08 10° W 23:13:59 38° NNW 23:24:45 15° NE visible
28 May 7.1 01:10:50 10° WNW 01:34:50 - NE 01:19:40 24° NNW visible
28 May 6.9 03:29:41 22° N 03:29:41 22° N 03:36:44 10° NE visible
28 May 6.1 05:26:15 10° NW 05:35:17 30° NNE 05:41:45 10° ENE visible
28 May 4.4 07:31:07 10° WNW 07:39:17 70° NNE 07:44:39 10° ESE visible
28 May 6.4 21:54:14 10° W 22:05:21 46° NNW 22:18:53 10° NE visible
29 May 7.0 00:01:23 10° WNW 00:12:35 28° NNW 00:18:31 22° NNE visible
29 May 7.3 02:10:28 10° NW 02:27:56 13° NE 02:29:20 10° NE visible
29 May 6.5 04:22:48 21° NNW 04:27:37 27° N 04:35:04 10° ENE visible
29 May 5.2 06:23:07 10° NW 06:32:39 50° NNE 06:38:55 10° E visible
29 May 6.1 20:47:09 10° W 20:57:05 57° NNW 21:10:37 10° NE visible
29 May 6.9 22:52:41 10° WNW 23:03:39 33° NNW 23:15:55 10° NE visible
30 May 7.1 01:01:00 10° NW 01:11:36 24° N 01:11:52 24° N visible
30 May 6.8 03:21:25 25° NNE 03:21:25 25° NNE 03:27:52 10° ENE visible
30 May 5.9 05:16:19 14° NW 05:25:28 40° NNE 05:32:47 10° E visible
30 May 4.3 07:20:18 10° WNW 07:29:22 85° SSW 07:35:12 10° ESE visible
30 May 6.6 21:44:50 10° W 21:55:00 38° NNW 22:07:42 10° NE visible
30 May 7.1 23:51:55 10° WNW 00:02:29 26° N 00:09:56 17° NNE visible
31 May 7.3 01:59:57 10° NW 02:20:18 10° NE 02:04:47 19° NNW visible
31 May 6.3 04:15:13 32° N 04:17:43 34° NNE 04:26:09 10° ENE visible
31 May 4.9 06:11:56 10° WNW 06:22:42 68° NNE 06:29:37 10° ESE visible
31 May 6.3 20:37:44 10° W 20:46:48 45° NNW 20:59:18 10° NE visible
31 May 7.0 22:43:26 10° WNW 22:53:30 28° N 23:05:01 10° NE visible
01 Jun 7.1 00:51:03 10° NW 01:01:37 24° N 01:02:30 24° N visible
01 Jun 6.9 03:14:18 23° NE 03:14:18 23° NE 03:18:53 10° ENE visible
01 Jun 5.6 05:09:14 29° NW 05:15:26 53° NNE 05:23:36 10° E visible
01 Jun 4.5 07:09:34 10° WNW 07:19:18 65° SSW 07:25:35 10° SE visible
01 Jun 6.8 21:35:39 10° WNW 21:44:52 31° NNW 21:56:28 10° NE visible
01 Jun 7.1 23:42:26 10° NW 23:52:29 24° N 00:00:00 16° NE visible
02 Jun 7.2 01:49:16 10° NW 02:13:27 - ENE 01:54:46 21° NNW visible
02 Jun 6.1 04:08:24 43° NNE 04:08:24 43° NNE 04:16:59 10° E visible
02 Jun 4.8 06:03:19 18° WNW 06:12:33 87° NNE 06:20:06 10° ESE visible
02 Jun 6.5 20:28:33 10° W 20:36:43 36° NNW 20:47:55 10° NE visible
02 Jun 7.1 22:34:17 10° NW 22:43:30 25° N 22:54:12 10° NE visible
03 Jun 7.1 00:40:56 10° NW 00:51:38 25° N 00:52:06 25° N visible
03 Jun 7.1 02:46:38 10° NW 03:07:32 17° ENE 03:09:42 10° ENE visible
03 Jun 5.3 05:02:27 54° NNW 05:05:12 67° NNE 05:14:08 10° ESE visible
03 Jun 4.8 06:58:56 10° WNW 07:09:06 51° SSW 07:15:50 10° SE visible
03 Jun 7.0 21:26:41 10° WNW 21:34:54 26° N 21:45:16 10° NE visible
03 Jun 7.1 23:32:52 10° NW 23:42:32 24° N 23:49:18 17° NE visible
04 Jun 7.2 01:38:30 10° NW 01:44:04 23° NNW 01:44:04 23° NNW visible
04 Jun 6.2 04:01:30 39° ENE 04:01:30 39° ENE 04:07:34 10° E visible
04 Jun 4.9 05:56:25 34° WNW 06:02:12 75° SSW 06:10:24 10° ESE visible
04 Jun 6.7 20:19:38 10° WNW 20:26:49 28° NNW 20:36:30 10° NE visible
04 Jun 7.1 22:25:11 10° NW 22:33:38 22° N 22:43:32 10° NE visible
05 Jun 7.0 00:30:39 10° NW 00:41:13 27° N 00:41:13 27° N visible
05 Jun 7.4 02:35:31 10° NW 03:00:26 - E 02:35:58 11° NW visible
05 Jun 5.2 04:55:21 80° ENE 04:55:21 80° ENE 05:04:27 10° ESE visible
05 Jun 5.2 06:50:16 15° W 06:58:49 42° SSW 07:05:57 10° SE visible
05 Jun 7.0 21:17:54 10° NW 21:25:07 22° N 21:34:06 10° NE visible
05 Jun 7.1 23:23:10 10° NW 23:32:35 24° N 23:38:18 19° NE visible
